Location: Unspecified
(0.0000°N, 0.0000°E)
Time: 23:51:48
(UTC+00:00)

A-11 Canister half - Pass Details

Date: 10 February 2023
Orbit: 1526 x 1682 km, 47.3° (Epoch: 29 March)

Event Time Altitude Azimuth Distance (km) Brightness Sun altitude
Rises 10:46:57 0° 347° (NNW) 4,736 11.4 64.1°
Reaches altitude 10° 10:51:07 10° 3° (N) 3,781 11.0 64.9°
Maximum altitude 10:57:50 21° 48° (NE) 3,055 10.9 66.3°
Drops below altitude 10° 11:04:38 10° 92° (E) 3,875 11.5 67.6°
Sets 11:08:55 0° 108° (ESE) 4,888 11.9 68.4°
